Time,TemperatureF,DewpointF,PressureIn,WindDirection,WindDirectionDegrees,WindSpeedMPH,WindSpeedGustMPH,Humidity,HourlyPrecipIn,Conditions,Clouds,dailyrainin,SoftwareType,DateUTC
2013-01-30 00:04:00,33.0,31.0,30.10,SSE,149,0.0,2.0,93,0.00,,,0.00,,2013-01-30 05:04:00,
2013-01-30 00:12:00,33.0,31.0,30.10,SSE,149,0.0,3.0,93,0.00,,,0.00,,2013-01-30 05:12:00,
2013-01-30 00:22:00,33.0,31.0,30.10,SSE,149,0.0,3.0,93,0.00,,,0.00,,2013-01-30 05:22:00,
2013-01-30 00:32:00,33.0,31.0,30.10,SSE,149,2.0,3.0,93,0.00,,,0.00,,2013-01-30 05:32:00,
2013-01-30 00:43:00,33.0,31.0,30.10,SSE,149,2.0,3.0,93,0.00,,,0.00,,2013-01-30 05:43:00,
2013-01-30 00:52:00,33.0,31.0,30.09,SSE,150,1.0,3.0,93,0.00,,,0.00,,2013-01-30 05:52:00,
2013-01-30 01:02:00,33.0,31.0,30.08,South,181,3.0,5.0,93,0.00,,,0.00,,2013-01-30 06:02:00,
2013-01-30 01:11:00,33.0,31.0,30.08,South,181,3.0,5.0,93,0.00,,,0.00,,2013-01-30 06:11:00,
2013-01-30 01:21:00,33.0,31.0,30.08,South,181,3.0,5.0,93,0.00,,,0.00,,2013-01-30 06:21:00,
2013-01-30 01:32:00,33.0,31.0,30.08,ESE,113,0.0,6.0,93,0.00,,,0.00,,2013-01-30 06:32:00,
2013-01-30 01:42:00,33.0,31.0,30.08,ESE,113,0.0,6.0,93,0.00,,,0.00,,2013-01-30 06:42:00,
2013-01-30 01:52:00,33.0,31.0,30.08,ESE,113,0.0,6.0,93,0.00,,,0.00,,2013-01-30 06:52:00,
2013-01-30 02:02:00,33.0,31.0,30.07,SSE,163,0.0,4.0,94,0.00,,,0.00,,2013-01-30 07:02:00,
2013-01-30 02:12:00,33.0,31.0,30.07,SSE,163,0.0,4.0,94,0.00,,,0.00,,2013-01-30 07:12:00,
2013-01-30 02:22:00,33.0,31.0,30.07,SSE,163,1.0,4.0,94,0.00,,,0.00,,2013-01-30 07:22:00,
2013-01-30 02:32:00,33.0,31.0,30.05,SSE,163,1.0,3.0,94,0.00,,,0.00,,2013-01-30 07:32:00,
2013-01-30 02:42:00,33.0,31.0,30.05,SSE,163,1.0,3.0,94,0.00,,,0.00,,2013-01-30 07:42:00,
2013-01-30 02:52:00,33.0,31.0,30.04,SSE,157,1.0,4.0,94,0.00,,,0.00,,2013-01-30 07:52:00,
2013-01-30 03:02:00,33.0,31.0,30.03,SSE,157,1.0,3.0,94,0.00,,,0.00,,2013-01-30 08:02:00,
2013-01-30 03:11:00,33.0,31.0,30.03,SSE,157,1.0,3.0,94,0.00,,,0.00,,2013-01-30 08:11:00,
2013-01-30 03:21:00,34.0,32.0,30.02,SSE,148,3.0,7.0,94,0.00,,,0.00,,2013-01-30 08:21:00,
2013-01-30 03:32:00,34.0,32.0,30.02,SSE,148,3.0,7.0,94,0.00,,,0.00,,2013-01-30 08:32:00,
2013-01-30 03:42:00,34.0,32.0,30.02,SSE,148,3.0,7.0,94,0.00,,,0.00,,2013-01-30 08:42:00,
2013-01-30 03:52:00,34.0,32.0,30.01,SSE,153,3.0,7.0,94,0.00,,,0.00,,2013-01-30 08:52:00,
2013-01-30 04:02:00,34.0,32.0,29.99,SSE,149,3.0,8.0,94,0.00,,,0.00,,2013-01-30 09:02:00,
2013-01-30 04:11:00,34.0,32.0,29.99,SSE,149,3.0,8.0,94,0.00,,,0.00,,2013-01-30 09:11:00,
2013-01-30 04:21:00,34.0,32.0,29.99,SSE,159,5.0,7.0,94,0.00,,,0.00,,2013-01-30 09:21:00,
2013-01-30 04:32:00,34.0,32.0,29.97,South,186,2.0,10.0,94,0.00,,,0.00,,2013-01-30 09:32:00,
2013-01-30 04:42:00,34.0,32.0,29.97,South,186,2.0,10.0,94,0.00,,,0.00,,2013-01-30 09:42:00,
2013-01-30 04:51:00,35.0,33.0,29.98,SSE,154,2.0,9.0,94,0.00,,,0.00,,2013-01-30 09:51:00,
2013-01-30 05:02:00,35.0,33.0,29.98,South,171,1.0,4.0,94,0.00,,,0.00,,2013-01-30 10:02:00,
2013-01-30 05:11:00,35.0,33.0,29.98,South,171,1.0,4.0,94,0.00,,,0.00,,2013-01-30 10:11:00,
2013-01-30 05:21:00,35.0,33.0,29.98,South,171,1.0,4.0,94,0.00,,,0.00,,2013-01-30 10:21:00,
2013-01-30 05:32:00,34.0,32.0,29.96,South,182,2.0,6.0,94,0.00,,,0.00,,2013-01-30 10:32:00,
2013-01-30 05:42:00,34.0,32.0,29.96,South,182,2.0,6.0,94,0.00,,,0.00,,2013-01-30 10:42:00,
2013-01-30 05:52:00,34.0,32.0,29.95,SSE,157,5.0,7.0,94,0.00,,,0.00,,2013-01-30 10:52:00,
2013-01-30 06:02:00,35.0,33.0,29.94,South,174,4.0,6.0,94,0.00,,,0.00,,2013-01-30 11:02:00,
2013-01-30 06:11:00,35.0,33.0,29.94,South,174,4.0,6.0,94,0.00,,,0.00,,2013-01-30 11:11:00,
2013-01-30 06:22:00,35.0,33.0,29.95,South,178,3.0,9.0,94,0.00,,,0.00,,2013-01-30 11:22:00,
2013-01-30 06:33:00,36.0,34.0,29.94,South,173,4.0,9.0,94,0.00,,,0.00,,2013-01-30 11:33:00,
2013-01-30 06:42:00,36.0,34.0,29.94,South,173,4.0,9.0,94,0.00,,,0.00,,2013-01-30 11:42:00,
2013-01-30 06:52:00,36.0,34.0,29.94,SSE,167,3.0,7.0,94,0.00,,,0.00,,2013-01-30 11:52:00,
2013-01-30 07:02:00,37.0,35.0,29.93,South,178,3.0,6.0,94,0.00,,,0.00,,2013-01-30 12:02:00,
2013-01-30 07:12:00,37.0,35.0,29.93,South,178,3.0,6.0,94,0.00,,,0.00,,2013-01-30 12:12:00,
2013-01-30 07:22:00,37.0,35.0,29.92,South,190,4.0,9.0,94,0.00,,,0.00,,2013-01-30 12:22:00,
2013-01-30 07:33:00,37.0,35.0,29.91,SSE,160,4.0,8.0,94,0.00,,,0.00,,2013-01-30 12:33:00,
2013-01-30 07:43:00,37.0,35.0,29.91,SSE,160,4.0,8.0,94,0.00,,,0.00,,2013-01-30 12:43:00,
2013-01-30 08:03:00,38.0,36.0,29.88,South,186,4.0,11.0,94,0.00,,,0.00,,2013-01-30 13:03:00,
2013-01-30 08:12:00,38.0,36.0,29.88,South,186,4.0,11.0,94,0.00,,,0.00,,2013-01-30 13:12:00,
2013-01-30 08:23:00,39.0,38.0,29.88,SSW,201,3.0,10.0,95,0.00,,,0.00,,2013-01-30 13:23:00,
2013-01-30 08:33:00,39.0,38.0,29.88,SSE,161,6.0,11.0,95,0.00,,,0.00,,2013-01-30 13:33:00,
2013-01-30 08:43:00,39.0,38.0,29.88,SSE,161,6.0,11.0,95,0.00,,,0.00,,2013-01-30 13:43:00,
2013-01-30 08:52:00,40.0,39.0,29.87,SSW,195,5.0,14.0,95,0.00,,,0.00,,2013-01-30 13:52:00,
2013-01-30 09:03:00,43.0,42.0,29.86,South,178,8.0,22.0,95,0.00,,,0.00,,2013-01-30 14:03:00,
2013-01-30 09:12:00,43.0,42.0,29.86,South,178,8.0,22.0,95,0.00,,,0.00,,2013-01-30 14:12:00,
2013-01-30 09:23:00,44.0,43.0,29.86,South,191,6.0,17.0,95,0.00,,,0.00,,2013-01-30 14:23:00,
2013-01-30 09:33:00,46.0,45.0,29.85,SSW,204,5.0,18.0,95,0.00,,,0.00,,2013-01-30 14:33:00,
2013-01-30 09:42:00,46.0,45.0,29.85,SSW,204,5.0,18.0,95,0.00,,,0.00,,2013-01-30 14:42:00,
2013-01-30 09:52:00,46.0,45.0,29.85,WSW,237,10.0,19.0,95,0.00,,,0.00,,2013-01-30 14:52:00,
2013-01-30 10:03:00,47.0,46.0,29.83,South,176,5.0,20.0,95,0.00,,,0.00,,2013-01-30 15:03:00,
2013-01-30 10:12:00,47.0,46.0,29.83,South,176,5.0,20.0,95,0.00,,,0.00,,2013-01-30 15:12:00,
2013-01-30 10:23:00,47.0,46.0,29.83,SSE,150,7.0,18.0,95,0.00,,,0.00,,2013-01-30 15:23:00,
2013-01-30 10:33:00,49.0,48.0,29.82,SSW,201,6.0,16.0,95,0.00,,,0.00,,2013-01-30 15:33:00,
2013-01-30 10:43:00,49.0,48.0,29.82,SSW,201,6.0,16.0,95,0.00,,,0.00,,2013-01-30 15:43:00,
2013-01-30 10:53:00,49.0,48.0,29.82,SSW,201,6.0,16.0,95,0.00,,,0.00,,2013-01-30 15:53:00,
2013-01-30 11:03:00,51.0,50.0,29.80,South,190,8.0,30.0,96,0.00,,,0.00,,2013-01-30 16:03:00,
2013-01-30 11:12:00,51.0,50.0,29.80,South,190,8.0,30.0,96,0.00,,,0.00,,2013-01-30 16:12:00,
2013-01-30 11:23:00,51.0,50.0,29.80,SSW,203,9.0,24.0,95,0.00,,,0.00,,2013-01-30 16:23:00,
2013-01-30 11:32:00,52.0,51.0,29.78,SSE,166,12.0,25.0,96,0.00,,,0.00,,2013-01-30 16:32:00,
2013-01-30 11:42:00,52.0,51.0,29.78,SSE,166,12.0,25.0,96,0.00,,,0.00,,2013-01-30 16:42:00,
2013-01-30 11:52:00,52.0,51.0,29.78,SSE,166,12.0,25.0,96,0.00,,,0.00,,2013-01-30 16:52:00,
2013-01-30 12:02:00,52.0,51.0,29.73,SSW,193,14.0,21.0,96,0.00,,,0.00,,2013-01-30 17:02:00,
2013-01-30 12:12:00,52.0,51.0,29.73,SSW,193,14.0,21.0,96,0.00,,,0.00,,2013-01-30 17:12:00,
2013-01-30 12:23:00,52.0,51.0,29.73,South,186,11.0,25.0,95,0.00,,,0.00,,2013-01-30 17:23:00,
2013-01-30 12:33:00,52.0,51.0,29.71,South,175,8.0,25.0,95,0.00,,,0.00,,2013-01-30 17:33:00,
2013-01-30 12:43:00,52.0,51.0,29.71,South,175,8.0,25.0,95,0.00,,,0.00,,2013-01-30 17:43:00,
2013-01-30 12:53:00,52.0,51.0,29.70,SSW,198,7.0,20.0,95,0.00,,,0.00,,2013-01-30 17:53:00,
2013-01-30 13:03:00,52.0,51.0,29.69,SSW,209,7.0,17.0,96,0.00,,,0.00,,2013-01-30 18:03:00,
2013-01-30 13:13:00,52.0,51.0,29.69,SSW,209,7.0,17.0,96,0.00,,,0.00,,2013-01-30 18:13:00,
2013-01-30 13:23:00,52.0,51.0,29.68,SSW,198,7.0,17.0,95,0.00,,,0.00,,2013-01-30 18:23:00,
2013-01-30 13:33:00,52.0,51.0,29.67,South,180,7.0,22.0,96,0.00,,,0.00,,2013-01-30 18:33:00,
2013-01-30 13:42:00,52.0,51.0,29.67,South,180,7.0,22.0,96,0.00,,,0.00,,2013-01-30 18:42:00,
2013-01-30 13:52:00,53.0,52.0,29.65,SSE,166,9.0,15.0,96,0.00,,,0.00,,2013-01-30 18:52:00,
2013-01-30 14:03:00,54.0,53.0,29.65,South,188,8.0,21.0,96,0.00,,,0.00,,2013-01-30 19:03:00,
2013-01-30 14:12:00,54.0,53.0,29.65,South,188,8.0,21.0,96,0.00,,,0.00,,2013-01-30 19:12:00,
2013-01-30 14:22:00,55.0,54.0,29.65,South,175,16.0,29.0,96,0.00,,,0.00,,2013-01-30 19:22:00,
2013-01-30 14:33:00,56.0,55.0,29.63,WSW,239,10.0,34.0,96,0.00,,,0.00,,2013-01-30 19:33:00,
2013-01-30 14:43:00,56.0,55.0,29.63,WSW,239,10.0,34.0,96,0.00,,,0.00,,2013-01-30 19:43:00,
2013-01-30 14:52:00,57.0,56.0,29.63,WSW,244,17.0,33.0,96,0.00,,,0.00,,2013-01-30 19:52:00,
2013-01-30 15:03:00,57.0,56.0,29.63,SW,219,18.0,40.0,96,0.00,,,0.00,,2013-01-30 20:03:00,
2013-01-30 15:12:00,57.0,56.0,29.63,SW,219,18.0,40.0,96,0.00,,,0.00,,2013-01-30 20:12:00,
2013-01-30 15:22:00,57.0,56.0,29.62,WSW,242,18.0,33.0,95,0.00,,,0.00,,2013-01-30 20:22:00,
2013-01-30 15:33:00,57.0,55.0,29.62,SSW,198,14.0,37.0,94,0.00,,,0.00,,2013-01-30 20:33:00,
2013-01-30 15:42:00,57.0,55.0,29.62,SSW,198,14.0,37.0,94,0.00,,,0.00,,2013-01-30 20:42:00,
2013-01-30 15:52:00,57.0,55.0,29.61,SSW,195,16.0,39.0,94,0.00,,,0.00,,2013-01-30 20:52:00,
2013-01-30 16:03:00,57.0,55.0,29.61,SSW,195,16.0,39.0,94,0.00,,,0.00,,2013-01-30 21:03:00,
2013-01-30 16:12:00,57.0,55.0,29.61,SSW,195,16.0,39.0,94,0.00,,,0.00,,2013-01-30 21:12:00,
2013-01-30 16:23:00,58.0,55.0,29.61,South,187,16.0,26.0,91,0.00,,,0.00,,2013-01-30 21:23:00,
2013-01-30 16:32:00,58.0,56.0,29.61,SSW,205,14.0,33.0,92,0.00,,,0.00,,2013-01-30 21:32:00,
2013-01-30 16:42:00,58.0,56.0,29.61,SSW,205,14.0,33.0,92,0.00,,,0.00,,2013-01-30 21:42:00,
2013-01-30 16:52:00,57.0,55.0,29.61,South,181,13.0,37.0,92,0.00,,,0.00,,2013-01-30 21:52:00,
2013-01-30 17:03:00,57.0,54.0,29.61,SSW,197,15.0,33.0,91,0.00,,,0.00,,2013-01-30 22:03:00,
2013-01-30 17:12:00,57.0,54.0,29.61,SSW,197,15.0,33.0,91,0.00,,,0.00,,2013-01-30 22:12:00,
2013-01-30 17:22:00,57.0,54.0,29.61,SSW,197,15.0,33.0,91,0.00,,,0.00,,2013-01-30 22:22:00,
2013-01-30 17:32:00,57.0,54.0,29.61,SSW,197,15.0,33.0,91,0.00,,,0.00,,2013-01-30 22:32:00,
2013-01-30 17:42:00,57.0,54.0,29.61,SSW,197,15.0,33.0,91,0.00,,,0.00,,2013-01-30 22:42:00,
2013-01-30 17:53:00,57.0,55.0,29.61,SSW,202,15.0,34.0,92,0.00,,,0.00,,2013-01-30 22:53:00,
2013-01-30 18:03:00,58.0,55.0,29.59,SSW,211,17.0,31.0,91,0.00,,,0.00,,2013-01-30 23:03:00,
2013-01-30 18:12:00,58.0,55.0,29.59,SSW,211,17.0,31.0,91,0.00,,,0.00,,2013-01-30 23:12:00,
2013-01-30 18:22:00,58.0,55.0,29.58,WSW,242,16.0,33.0,91,0.00,,,0.00,,2013-01-30 23:22:00,
2013-01-30 18:33:00,58.0,55.0,29.57,SW,215,16.0,34.0,91,0.00,,,0.00,,2013-01-30 23:33:00,
2013-01-30 18:42:00,58.0,55.0,29.57,SW,215,16.0,34.0,91,0.00,,,0.00,,2013-01-30 23:42:00,
2013-01-30 18:52:00,58.0,55.0,29.57,SSW,211,18.0,33.0,90,0.00,,,0.00,,2013-01-30 23:52:00,
2013-01-30 19:02:00,59.0,56.0,29.57,SW,221,16.0,35.0,90,0.00,,,0.00,,2013-01-31 00:02:00,
2013-01-30 19:11:00,59.0,56.0,29.57,SW,221,16.0,35.0,90,0.00,,,0.00,,2013-01-31 00:11:00,
2013-01-30 19:22:00,59.0,56.0,29.57,WSW,243,11.0,29.0,89,0.00,,,0.00,,2013-01-31 00:22:00,
2013-01-30 19:32:00,59.0,56.0,29.56,SW,215,24.0,33.0,90,0.00,,,0.00,,2013-01-31 00:32:00,
2013-01-30 19:42:00,59.0,56.0,29.56,SW,215,24.0,33.0,90,0.00,,,0.00,,2013-01-31 00:42:00,
2013-01-30 19:52:00,59.0,56.0,29.57,South,180,16.0,34.0,90,0.00,,,0.00,,2013-01-31 00:52:00,
2013-01-30 20:02:00,59.0,56.0,29.55,South,183,26.0,37.0,90,0.00,,,0.00,,2013-01-31 01:02:00,
2013-01-30 20:12:00,59.0,56.0,29.55,South,183,26.0,37.0,90,0.00,,,0.00,,2013-01-31 01:12:00,
2013-01-30 20:22:00,58.0,55.0,29.55,SW,230,20.0,33.0,91,0.00,,,0.00,,2013-01-31 01:22:00,
2013-01-30 20:32:00,58.0,56.0,29.54,South,188,12.0,32.0,92,0.00,,,0.00,,2013-01-31 01:32:00,
2013-01-30 20:42:00,58.0,56.0,29.54,South,188,12.0,32.0,92,0.00,,,0.00,,2013-01-31 01:42:00,
2013-01-30 20:52:00,58.0,56.0,29.53,South,178,14.0,35.0,92,0.00,,,0.00,,2013-01-31 01:52:00,
2013-01-30 21:01:00,58.0,56.0,29.54,SSW,213,14.0,30.0,92,0.00,,,0.00,,2013-01-31 02:01:00,
2013-01-30 21:12:00,58.0,56.0,29.54,SSW,213,14.0,30.0,92,0.00,,,0.00,,2013-01-31 02:12:00,
2013-01-30 21:22:00,58.0,56.0,29.53,South,174,17.0,29.0,92,0.00,,,0.00,,2013-01-31 02:22:00,
2013-01-30 21:32:00,58.0,56.0,29.53,SW,233,17.0,32.0,93,0.00,,,0.00,,2013-01-31 02:32:00,
2013-01-30 21:42:00,58.0,56.0,29.53,SW,233,17.0,32.0,93,0.00,,,0.00,,2013-01-31 02:42:00,
2013-01-30 21:52:00,58.0,56.0,29.53,SW,233,17.0,32.0,93,0.00,,,0.00,,2013-01-31 02:52:00,
2013-01-30 22:03:00,57.0,55.0,29.52,South,184,13.0,27.0,93,0.00,,,0.00,,2013-01-31 03:03:00,
2013-01-30 22:11:00,57.0,55.0,29.52,South,184,13.0,27.0,93,0.00,,,0.00,,2013-01-31 03:11:00,
2013-01-30 22:21:00,57.0,55.0,29.52,SSE,168,11.0,27.0,93,0.00,,,0.00,,2013-01-31 03:21:00,
2013-01-30 22:32:00,57.0,55.0,29.51,SSW,203,14.0,32.0,93,0.00,,,0.00,,2013-01-31 03:32:00,
2013-01-30 22:42:00,57.0,55.0,29.51,SSW,203,14.0,32.0,93,0.00,,,0.00,,2013-01-31 03:42:00,
2013-01-30 22:51:00,57.0,55.0,29.51,SSW,200,8.0,32.0,94,0.00,,,0.00,,2013-01-31 03:51:00,
2013-01-30 23:02:00,57.0,55.0,29.49,South,190,8.0,31.0,94,0.00,,,0.00,,2013-01-31 04:02:00,
2013-01-30 23:11:00,57.0,55.0,29.49,South,190,8.0,31.0,94,0.00,,,0.00,,2013-01-31 04:11:00,
2013-01-30 23:22:00,57.0,55.0,29.48,WSW,251,15.0,31.0,94,0.00,,,0.00,,2013-01-31 04:22:00,
2013-01-30 23:32:00,57.0,55.0,29.47,South,190,19.0,37.0,94,0.00,,,0.00,,2013-01-31 04:32:00,
2013-01-30 23:41:00,57.0,55.0,29.47,South,190,19.0,37.0,94,0.00,,,0.00,,2013-01-31 04:41:00,
2013-01-30 23:51:00,57.0,55.0,29.46,SW,231,16.0,37.0,94,0.00,,,0.00,,2013-01-31 04:51:00,